Dallesport, WA

1:34 AM PST on February 11, 2016 (GMT -0800)
Columbia Gorge Regional-The Dalles

Weather History for KDLS - December, 2012

Change the Weather History Date:

Saturday, December 29, 2012

  Actual Average Record
Temperature  
Mean Temperature 32 °F -  
Max Temperature 33 °F 38 °F 60 °F (1998)
Min Temperature 30 °F 28 °F -2 °F (1990)
Degree Days  
Heating Degree Days 34    
Moisture  
Dew Point 28 °F    
Average Humidity 88    
Maximum Humidity 96    
Minimum Humidity 70    
Precipitation  
Precipitation 0.01 in - - ()
Sea Level Pressure  
Sea Level Pressure 30.26 in    
Wind  
Wind Speed 0 mph (East)    
Max Wind Speed 6 mph    
Max Gust Speed -    
Visibility 7 miles    
Events Snow    
Averages and records for this station are not official NWS values.
T = Trace of Precipitation, MM = Missing Value Source: NWS Daily Summary

Daily Weather History Graph

Daily Weather History Graph

Search for Another Location

Airport or City:

Trip Planner

Search our weather history database for the weather conditions in past years. The results will help you decide how hot, cold, wet, or windy it might be!

Date:

Astronomy

Dec. 29, 2012 Rise Set
Actual Time 7:45 AM PST 4:29 PM PST
Civil Twilight 7:10 AM PST 5:03 PM PST
Nautical Twilight 6:33 AM PST 5:41 PM PST
Astronomical Twilight 5:57 AM PST 6:17 PM PST
Moon 6:12 PM PST (12/29) 8:16 AM PST (12/29)
Length of Visible Light 9h 52m
Length of Day
8h 44m
Full, 98% of the Moon is Illuminated
Dec 29
Full
Jan 4
Last Quarter
Jan 11
New
Jan 18
First Quarter
Jan 26
Full

Hourly Weather History & Observations

Time (PST) Temp. Windchill Dew Point Humidity Pressure Visibility Wind Dir Wind Speed Gust Speed Precip Events Conditions
12:53 AM 30.0 °F - 27.0 °F 88% 30.30 in 6.0 mi Calm Calm - N/A   Overcast
1:30 AM 30.2 °F - 26.6 °F 86% 30.28 in 7.0 mi Calm Calm - N/A   Overcast
1:37 AM 30.2 °F - 28.4 °F 93% 30.28 in 7.0 mi Calm Calm - N/A   Overcast
1:53 AM 30.0 °F - 28.0 °F 92% 30.30 in 7.0 mi Calm Calm - N/A   Overcast
2:11 AM 30.2 °F - 28.4 °F 93% 30.28 in 8.0 mi Calm Calm - N/A   Overcast
2:53 AM 30.0 °F - 28.0 °F 92% 30.30 in 8.0 mi Calm Calm - N/A   Overcast
3:38 AM 30.2 °F - 28.4 °F 93% 30.29 in 6.0 mi Calm Calm - N/A   Overcast
4:53 AM 30.0 °F - 28.0 °F 92% 30.29 in 6.0 mi Calm Calm - N/A   Overcast
5:36 AM 30.2 °F - 28.4 °F 93% 30.27 in 8.0 mi Calm Calm - N/A   Overcast
5:53 AM 30.9 °F - 28.0 °F 89% 30.29 in 8.0 mi Calm Calm - N/A   Overcast
6:09 AM 30.2 °F - 28.4 °F 93% 30.28 in 8.0 mi Calm Calm - N/A   Overcast
6:28 AM 30.2 °F - 28.4 °F 93% 30.28 in 7.0 mi Calm Calm - N/A   Overcast
6:46 AM 30.2 °F - 28.4 °F 93% 30.27 in 8.0 mi Calm Calm - N/A   Overcast
6:53 AM 30.9 °F - 28.0 °F 89% 30.29 in 8.0 mi Calm Calm - N/A   Overcast
7:25 AM 30.2 °F - 28.4 °F 93% 30.28 in 9.0 mi Calm Calm - N/A   Overcast
7:53 AM 30.9 °F - 28.0 °F 89% 30.30 in 9.0 mi Calm Calm - N/A   Overcast
8:00 AM 30.2 °F - 28.4 °F 93% 30.28 in 8.0 mi Calm Calm - N/A   Overcast
8:13 AM 30.2 °F - 28.4 °F 93% 30.28 in 8.0 mi Calm Calm - N/A   Overcast
8:45 AM 30.2 °F - 28.4 °F 93% 30.29 in 10.0 mi Calm Calm - N/A   Overcast
8:53 AM 30.9 °F - 28.0 °F 89% 30.30 in 9.0 mi Calm Calm - N/A   Overcast
9:53 AM 32.0 °F - 28.9 °F 88% 30.30 in 9.0 mi Calm Calm - N/A   Overcast
10:53 AM 32.0 °F - 26.1 °F 79% 30.29 in 10.0 mi Calm Calm - N/A   Overcast
11:53 AM 32.0 °F 28.7 °F 24.1 °F 73% 30.27 in 10.0 mi SSE 3.5 mph - N/A   Overcast
12:53 PM 33.1 °F 27.7 °F 25.0 °F 72% 30.23 in 10.0 mi East 5.8 mph - N/A   Overcast
1:53 PM 33.1 °F - 24.1 °F 70% 30.21 in 10.0 mi Calm Calm - N/A   Overcast
3:53 PM 33.1 °F 30.0 °F 25.0 °F 72% 30.19 in 10.0 mi NE 3.5 mph - N/A   Overcast
4:53 PM 32.0 °F 28.7 °F 26.1 °F 79% 30.18 in 10.0 mi NE 3.5 mph - N/A   Overcast
5:24 PM 32.0 °F 27.5 °F 26.6 °F 80% 30.17 in 10.0 mi NE 4.6 mph - N/A   Overcast
5:53 PM 32.0 °F 28.7 °F 26.1 °F 79% 30.19 in 10.0 mi NE 3.5 mph - N/A   Overcast
6:53 PM 32.0 °F - 27.0 °F 82% 30.20 in 4.0 mi Calm Calm - 0.00 in Snow Light Snow
7:37 PM 30.2 °F 26.7 °F 26.6 °F 86% 30.21 in 4.0 mi SE 3.5 mph - 0.00 in Snow Light Snow
7:49 PM 30.2 °F - 28.4 °F 93% 30.21 in 2.5 mi Calm Calm - 0.00 in Snow Light Snow
7:53 PM 30.9 °F - 28.0 °F 89% 30.22 in 3.0 mi Calm Calm - 0.00 in Snow Light Snow
8:08 PM 30.2 °F 26.7 °F 28.4 °F 93% 30.22 in 1.8 mi WSW 3.5 mph - 0.00 in Snow Light Snow
8:35 PM 30.2 °F - 28.4 °F 93% 30.23 in 1.5 mi Calm Calm - 0.01 in Snow Light Snow
8:53 PM 30.0 °F - 28.9 °F 96% 30.24 in 1.0 mi Calm Calm - 0.01 in Snow Light Snow
9:05 PM 30.2 °F - 28.4 °F 93% 30.24 in 1.0 mi Calm Calm - 0.01 in Snow Light Snow
9:23 PM 30.2 °F - 28.4 °F 93% 30.24 in 2.5 mi Calm Calm - 0.01 in Snow Light Snow
9:30 PM 30.2 °F - 28.4 °F 93% 30.25 in 4.0 mi Calm Calm - 0.01 in Snow Light Snow
10:14 PM 30.2 °F - 28.4 °F 93% 30.26 in 6.0 mi Calm Calm - N/A   Overcast
10:53 PM 30.9 °F - 28.0 °F 89% 30.29 in 6.0 mi Calm Calm - N/A   Overcast
11:53 PM 30.0 °F - 28.0 °F 92% 30.30 in 7.0 mi Calm Calm - N/A   Overcast